EHI
0 0 0 0 0 0 0 0 0 0 0 0 0 0 0 0 0 0 0 0 0 1 4 7 10 11 13 14 14 15 16 14 12 10 7 3 1 0 1 0 0 0 0 0 0 1 0 0 0
0 0 0 0 0 0 0 0 0 0 0 0 0 0 0 0 0 0 0 0 0 1 4 7 10 11 12 13 14 14 15 15 12 10 6 3 1 1 1 1 0 0 0 0 0 1 1 0 0
0 0 0 0 0 0 0 0 0 0 0 0 0 0 0 0 0 0 0 0 1 2 4 7 9 11 11 11 12 13 14 14 13 10 6 2 1 1 1 1 0 0 0 0 1 1 1 1 1
0 0 0 0 0 0 0 0 0 0 0 0 0 0 0 0 0 0 0 1 2 3 4 7 9 10 10 10 11 11 12 13 12 9 5 2 1 0 0 0 0 0 0 1 1 1 0 0 0
0 0 0 0 0 0 0 0 0 0 0 0 0 0 0 0 0 0 0 1 3 4 5 7 9 10 11 11 11 10 10 10 11 9 5 2 0 0 1 1 0 0 0 1 1 1 0 0 0
0 0 0 0 0 0 0 0 0 0 0 0 0 0 0 0 1 1 1 1 2 4 5 6 8 9 10 10 9 9 8 9 9 9 6 2 1 1 1 1 0 0 0 1 1 0 0 0 0
0 0 0 0 0 0 0 0 0 0 0 0 0 0 0 1 2 2 2 3 3 4 5 6 6 6 6 7 7 7 8 7 7 6 5 3 1 1 1 1 0 0 0 1 1 1 1 0 0
0 0 0 0 0 0 0 0 0 0 0 0 0 0 0 1 3 3 3 4 4 5 5 5 5 4 4 4 5 6 7 6 5 3 2 1 1 0 0 0 0 0 0 1 2 2 1 0 0
0 0 0 0 0 0 0 0 0 0 0 0 0 0 1 2 3 3 3 3 4 4 4 4 5 4 3 3 4 6 6 6 4 2 0 0 0 0 0 0 0 0 1 2 3 3 1 0 0
0 0 0 0 0 0 0 0 0 0 0 0 0 0 1 3 3 3 2 2 3 3 3 3 4 3 3 3 4 6 6 6 5 3 1 0 0 0 0 0 0 0 1 2 2 2 1 0 0
0 0 0 0 0 0 0 0 0 0 0 0 0 1 2 3 3 2 1 1 2 3 3 3 3 3 3 3 4 6 6 6 5 3 1 0 0 0 0 0 0 0 1 1 1 1 0 0 0
0 0 0 0 0 0 0 0 0 0 0 0 1 2 3 3 2 1 0 0 1 2 2 2 3 3 3 3 4 6 6 6 5 2 1 0 0 0 0 0 0 0 0 0 0 0 0 0 0
0 0 0 0 0 0 0 0 0 0 0 0 1 2 2 1 1 0 0 0 1 1 0 1 1 2 3 3 4 6 6 6 4 1 0 0 0 0 0 0 0 0 0 0 0 0 0 0 0
0 0 0 0 0 0 0 0 0 0 0 0 0 1 1 0 0 0 0 0 0 0 0 0 0 1 3 3 4 6 6 6 3 1 0 0 0 0 0 0 0 0 0 0 0 0 0 0 0
0 0 0 0 0 0 0 0 0 0 0 0 0 0 0 0 0 0 0 0 0 0 0 0 0 1 2 3 4 6 6 6 3 1 0 0 0 0 0 0 0 0 0 0 0 0 0 0 0
0 0 0 0 0 0 0 0 0 0 0 0 0 0 0 0 0 0 0 0 0 0 0 0 0 1 2 3 4 5 6 6 4 2 0 0 0 0 0 0 0 0 0 0 0 0 0 0 0
0 0 0 0 0 0 0 0 0 0 0 0 0 0 0 0 0 0 0 0 0 0 0 0 0 0 1 3 3 4 6 6 4 2 0 0 0 0 0 0 0 0 0 0 0 0 0 0 0
0 0 0 0 0 0 0 0 0 0 0 0 0 0 0 0 0 0 0 0 0 0 0 0 0 0 1 2 3 4 5 5 3 1 0 0 0 0 0 0 0 0 0 0 0 0 0 0 0
0 0 0 0 0 0 0 0 0 0 0 0 0 0 0 0 0 0 0 0 0 0 0 0 0 0 0 1 2 3 3 3 2 1 0 0 0 0 0 0 0 0 0 0 0 0 0 0 0
0 0 0 0 0 0 0 0 0 0 0 0 0 0 0 0 0 0 0 0 0 0 0 0 0 0 0 0 1 2 3 2 1 0 0 0 0 0 0 0 0 0 0 0 0 0 0 0 0
0 0 0 0 0 0 0 0 0 0 0 0 0 0 0 0 0 0 0 0 0 0 0 0 0 0 0 0 0 1 2 2 1 0 0 0 0 0 0 0 0 0 0 0 0 0 0 0 0
0 0 0 0 0 0 0 0 0 0 0 0 0 0 0 0 0 0 0 0 0 0 0 0 0 0 0 0 0 0 1 1 0 0 0 0 0 0 0 0 0 0 0 0 0 0 0 0 0
0 0 0 0 0 0 0 0 0 0 0 0 0 0 0 0 0 0 0 0 0 0 0 0 0 0 0 0 0 0 0 0 0 0 0 0 0 0 0 0 0 0 0 0 0 0 0 0 0
0 0 0 0 0 0 0 0 0 0 0 0 0 0 0 0 0 0 0 0 0 0 0 0 0 0 0 0 0 0 0 0 0 0 0 0 0 0 0 0 0 0 0 0 0 0 0 0 0
0 0 0 0 0 0 0 0 0 0 0 0 0 0 0 0 0 0 0 0 0 0 0 0 0 0 0 0 0 0 0 0 0 0 0 0 0 0 0 0 0 0 0 0 0 0 0 0 0
0 0 0 0 0 0 0 0 0 0 0 0 0 0 0 0 0 0 0 0 0 0 0 0 0 0 0 0 0 0 0 0 0 0 0 0 0 0 0 0 0 0 0 0 0 0 0 0 0
0 0 0 0 0 0 0 0 0 0 0 0 0 0 0 0 0 0 0 0 0 0 0 0 0 0 0 0 0 0 0 0 0 0 0 0 0 0 0 0 0 0 0 0 0 0 0 0 0
0 0 0 0 0 0 0 0 0 0 0 0 0 0 0 0 0 0 0 0 0 0 0 0 0 0 0 0 0 0 0 0 0 0 0 0 0 0 0 0 0 0 0 0 0 0 0 0 0
0 0 0 0 0 0 0 0 0 0 0 0 0 0 0 0 0 0 0 0 0 0 0 0 0 0 0 0 0 0 0 0 0 0 0 0 0 0 0 0 0 0 0 0 0 0 0 0 0
0 0 0 0 0 0 0 0 0 0 0 0 0 0 0 0 0 0 0 0 0 0 0 0 0 0 0 0 0 0 0 0 0 0 0 0 0 0 0 0 0 0 0 0 0 0 0 0 0
Wind_Speed
9 4 2 4 7 5 2 2 1 0 1 1 1 2 3 3 2 2 2 3 4 3 3 3 4 4 5 6 6 6 7 7 7 7 8 8 9 10 10 10 11 11 11 12 13 13 13 13 14
3 2 5 6 5 1 4 2 2 1 1 1 2 2 3 1 2 2 3 5 4 3 3 2 4 4 5 5 6 6 6 7 7 7 7 7 8 9 10 10 10 11 11 12 12 13 12 13 13
2 4 5 5 3 5 4 2 3 0 2 2 2 2 1 1 1 1 2 3 4 4 4 3 5 5 5 5 6 6 6 6 7 7 7 7 7 8 9 9 10 11 11 11 11 12 12 12 12
3 5 6 5 3 4 2 1 1 1 2 3 2 2 1 2 1 1 2 3 4 4 5 4 5 5 5 5 5 5 6 6 7 7 7 7 7 8 8 8 9 10 10 11 11 11 11 11 11
5 5 5 1 3 2 1 0 1 1 1 2 2 1 1 2 3 3 3 3 3 4 4 4 5 5 5 5 5 5 5 6 6 7 7 7 7 7 7 8 8 9 10 10 10 11 11 11 11
5 5 4 3 4 2 1 1 1 1 1 1 2 1 1 2 3 3 3 3 3 3 4 4 6 6 6 5 5 5 5 5 6 6 7 7 6 7 7 7 8 9 9 9 10 10 10 10 11
4 4 4 4 3 2 1 1 2 1 1 1 1 1 1 2 2 2 3 2 3 3 3 4 4 4 6 6 6 6 5 5 5 6 7 6 6 6 6 7 7 8 8 8 9 9 10 10 10
4 5 3 2 3 3 0 1 1 1 1 0 1 2 2 2 2 2 3 2 3 3 3 3 4 3 3 3 5 7 6 6 6 6 6 6 6 6 6 6 6 7 8 8 8 9 10 10 10
3 5 3 4 4 3 0 1 1 1 2 1 1 0 2 0 2 3 3 3 3 4 3 3 3 4 3 2 4 5 5 6 6 5 6 5 3 3 4 5 6 7 7 8 8 9 10 9 9
4 3 3 2 2 2 0 1 1 1 1 1 1 2 2 2 2 2 2 2 3 4 4 3 3 3 3 2 2 2 2 3 3 3 3 2 2 3 4 5 6 7 7 7 8 9 8 7 4
3 2 1 1 1 1 0 0 0 2 2 3 3 2 0 1 1 0 1 2 2 2 3 4 2 2 3 2 1 1 1 2 3 3 3 3 2 3 3 2 3 4 5 4 5 5 3 3 3
3 1 0 1 1 1 1 1 0 1 4 2 2 2 1 0 2 2 2 3 3 2 2 3 2 2 2 1 1 1 1 1 2 2 3 2 1 2 2 2 2 2 2 3 3 2 3 4 4
2 1 1 1 2 1 1 1 1 2 3 1 1 1 1 1 2 3 2 2 2 2 2 3 2 1 1 1 1 1 1 1 2 2 2 2 1 1 2 2 2 2 2 2 2 3 3 4 3
1 1 1 2 2 1 1 2 1 3 1 1 1 0 1 1 2 3 2 2 2 3 3 3 2 1 1 1 0 1 1 1 1 2 2 2 1 1 2 2 2 2 2 2 2 2 3 3 3
1 2 3 2 2 1 2 3 2 3 0 1 1 1 2 2 2 2 2 2 2 2 3 3 2 1 1 1 0 1 1 1 1 1 1 2 1 2 2 2 2 1 1 2 2 3 3 3 3
3 3 3 4 2 2 2 5 3 1 0 2 2 2 2 3 3 2 2 2 1 1 2 3 2 2 1 1 1 1 1 1 1 1 1 1 2 2 2 2 1 1 1 2 2 2 2 2 3
5 2 3 5 2 2 0 6 5 3 1 2 3 3 3 4 4 3 2 2 1 1 1 2 2 2 1 1 1 1 1 1 1 1 1 1 2 2 2 2 1 2 2 2 2 2 2 2 2
2 2 3 5 3 2 3 7 7 4 2 3 3 2 3 4 5 3 2 1 1 1 0 1 2 2 1 1 1 1 1 1 1 1 1 1 1 2 2 2 2 2 2 2 2 2 2 2 2
2 2 4 6 3 2 5 8 9 5 3 3 3 3 4 4 4 3 2 1 1 2 1 1 1 2 1 1 0 1 0 0 1 1 1 1 1 2 2 1 2 2 2 2 2 2 3 2 2
1 2 4 5 2 2 4 8 7 4 4 4 3 3 4 4 5 4 3 2 1 1 0 0 1 2 1 0 1 1 1 1 0 0 1 1 1 2 2 2 1 2 2 3 2 2 2 1 1
2 3 4 4 6 2 3 6 4 3 2 2 2 2 3 3 4 4 4 2 2 2 1 1 1 1 1 1 0 1 1 1 1 1 0 0 1 1 1 2 2 2 3 3 3 3 3 3 1
3 3 3 3 2 4 2 5 6 3 4 4 4 4 4 4 4 3 3 3 2 3 2 2 2 1 0 0 0 2 1 1 1 1 1 0 0 1 1 2 2 2 2 3 4 3 2 4 2
4 3 2 1 1 2 1 2 8 2 4 6 5 5 4 4 3 3 3 2 2 2 2 2 2 2 1 1 1 2 1 0 0 0 1 0 0 0 1 1 2 2 2 3 4 3 2 3 3
2 2 2 2 3 2 2 2 8 3 4 6 6 6 5 4 4 3 2 2 2 2 2 2 3 3 2 1 1 2 2 1 0 0 1 1 1 0 0 0 1 2 2 2 3 4 4 3 3
3 4 4 6 4 5 1 3 9 4 3 4 6 6 5 4 4 4 3 2 2 2 2 2 2 3 2 2 1 1 2 2 2 2 2 1 1 1 1 1 1 2 2 2 2 3 4 3 3
1 3 4 3 4 6 3 7 8 3 3 4 4 4 4 4 4 4 3 2 2 2 2 2 2 2 2 1 1 1 1 1 1 2 2 2 2 2 2 1 1 1 2 2 2 2 3 3 3
1 1 2 3 1 4 7 8 8 2 4 5 5 5 5 4 5 4 4 3 2 2 3 2 2 2 2 2 1 2 1 0 1 1 1 1 1 1 1 1 1 1 2 2 3 2 3 3 3
1 3 3 3 1 5 7 6 6 5 5 5 5 5 6 5 5 5 3 3 3 3 3 3 2 2 2 2 2 1 1 1 1 1 1 1 1 1 1 1 2 2 2 2 3 2 3 3 3
1 2 2 2 3 3 6 9 5 4 3 4 5 6 6 6 5 5 4 3 3 3 3 3 3 2 2 2 2 2 1 1 1 1 1 1 1 1 1 2 2 2 2 2 2 2 2 3 3
3 3 4 3 4 4 4 11 3 3 3 3 6 7 6 5 5 5 4 3 3 3 3 3 2 2 2 2 2 2 1 1 1 1 2 2 1 1 1 2 2 2 2 3 3 3 3 4 4
Wind_Direction
339 348 48 54 58 57 213 232 192 344 1 2 14 93 126 136 158 185 340 6 4 356 346 354 19 45 56 64 63 74 90 94 94 95 97 101 110 113 111 110 108 106 105 101 99 98 97 96 96
333 6 52 60 93 156 245 215 190 216 183 58 30 48 68 69 30 25 353 343 0 11 3 5 26 52 62 68 68 71 87 96 94 91 92 95 103 111 112 110 109 106 104 102 101 100 99 98 99
359 44 78 78 120 190 205 192 193 86 54 57 45 36 49 16 13 2 334 342 11 18 3 1 33 49 59 72 73 72 81 93 95 92 91 92 94 102 109 109 108 106 105 105 104 104 103 101 102
53 48 58 82 193 222 198 220 190 125 20 37 76 29 16 21 3 336 358 18 25 16 2 359 37 47 54 67 75 72 84 88 93 94 94 94 93 95 99 106 108 107 107 107 106 107 107 104 103
52 77 76 78 235 249 235 240 152 131 31 17 68 91 324 9 38 42 38 35 28 13 3 5 35 47 56 61 63 72 89 88 87 92 95 94 95 96 95 100 108 110 110 109 108 108 109 106 105
54 70 106 196 230 256 251 335 100 100 105 32 65 108 247 29 37 20 22 29 24 19 10 10 25 39 46 57 58 57 82 87 84 86 93 91 92 96 96 101 108 110 110 110 111 111 109 106 105
97 97 151 183 205 239 215 30 121 133 122 246 147 139 264 346 10 14 15 31 27 22 21 14 10 26 36 48 57 56 67 75 73 73 76 78 79 87 97 103 106 111 109 110 112 114 110 106 103
109 102 123 184 186 225 231 33 69 119 192 1 112 157 240 285 357 32 32 35 34 26 23 14 12 13 22 39 48 57 59 63 64 64 62 64 73 80 83 95 100 106 106 105 108 110 108 103 98
72 81 178 203 190 206 117 59 359 40 97 26 36 221 287 49 68 48 23 11 11 10 11 15 14 7 5 34 46 46 51 49 52 57 57 65 76 81 75 72 90 96 99 101 105 108 105 99 93
64 125 203 213 183 171 139 159 176 45 22 348 339 353 27 58 83 65 16 350 344 342 347 5 9 5 -0 22 41 39 50 51 45 41 38 48 74 76 74 71 79 85 88 95 98 100 100 91 85
63 147 187 317 351 122 125 310 26 143 257 235 245 274 1 25 16 27 297 292 290 304 337 345 352 2 7 7 40 35 43 60 52 49 38 31 63 78 72 70 73 74 80 87 90 88 87 91 91
75 0 320 305 346 7 189 189 1 204 250 271 220 204 178 275 304 273 270 287 291 310 318 336 340 357 358 6 47 52 53 60 66 51 45 46 68 84 86 81 79 69 70 81 83 94 93 93 93
67 347 355 353 4 12 35 249 213 265 284 328 114 116 277 282 294 294 281 291 303 310 315 322 331 348 360 10 39 56 66 73 70 65 49 43 64 94 95 88 88 76 70 86 86 94 100 101 96
109 76 337 343 3 18 31 305 193 267 324 30 79 256 282 296 298 317 320 314 317 322 321 312 334 344 31 13 72 78 63 92 88 69 51 40 54 91 99 96 90 80 75 78 97 105 110 108 102
93 42 1 349 358 2 26 330 232 242 357 343 304 283 308 309 314 302 288 282 297 307 314 323 335 354 37 21 40 89 58 83 90 84 58 54 59 103 102 95 89 82 82 80 89 82 97 102 98
48 47 349 317 354 347 58 281 278 265 229 283 281 292 308 312 311 305 309 305 309 311 323 326 346 354 6 15 17 67 79 97 90 88 74 51 72 88 118 116 104 104 97 92 98 99 103 102 105
39 19 294 304 328 4 60 264 286 298 249 273 290 309 313 316 326 327 317 310 322 297 318 340 353 358 353 7 18 71 85 86 91 91 87 81 90 91 102 124 116 123 107 92 93 102 113 119 111
282 285 281 279 296 345 272 267 288 295 255 260 283 306 316 314 314 319 313 313 38 57 60 352 8 2 1 15 23 66 62 70 92 102 77 79 98 103 99 111 116 122 117 103 103 121 98 121 119
186 210 262 268 275 294 257 275 285 279 267 268 285 295 303 306 312 329 333 356 49 62 65 21 14 2 25 21 324 185 196 47 82 89 70 99 100 104 115 109 130 132 130 131 125 127 120 108 116
203 246 267 293 309 282 281 280 275 255 235 235 249 276 294 317 330 339 352 5 3 19 55 43 1 0 355 304 239 202 193 201 134 113 100 102 114 121 125 133 140 151 137 127 125 123 132 127 125
260 225 248 283 323 334 329 302 280 295 294 311 297 284 302 304 306 316 329 340 348 348 334 337 338 330 327 324 303 93 80 74 40 7 353 91 123 134 142 154 157 156 157 160 161 146 145 154 161
270 249 263 280 340 306 34 295 285 303 308 310 311 317 316 318 310 306 313 326 332 327 336 356 356 352 53 74 78 116 125 170 249 256 246 282 95 143 148 160 163 164 169 166 174 163 159 155 166
251 296 278 236 179 310 344 245 282 327 303 307 307 305 311 309 299 294 299 295 312 330 342 352 6 17 39 89 118 126 124 161 278 261 130 155 202 193 164 161 161 173 168 171 175 174 165 165 166
288 360 40 61 71 301 244 204 279 266 276 308 315 312 312 310 308 306 321 337 337 352 360 3 18 11 11 40 112 149 155 170 147 299 183 205 206 189 351 192 179 191 181 173 184 182 182 183 172
36 58 12 355 355 261 248 234 255 260 275 284 297 304 305 309 312 321 339 337 328 341 346 348 2 356 354 11 13 208 185 185 199 216 207 206 204 197 224 235 219 207 197 185 180 184 188 190 183
354 121 146 232 258 287 296 246 256 254 295 308 307 305 315 317 313 307 304 306 317 325 330 333 331 328 331 354 338 305 235 203 205 210 209 212 217 214 210 222 229 228 205 186 178 193 199 196 195
113 150 164 144 285 285 273 283 295 296 324 331 332 331 321 314 312 307 310 314 315 316 315 303 301 313 318 327 332 325 288 215 237 250 212 222 239 225 189 210 232 226 205 195 179 195 208 201 203
128 146 99 119 251 282 288 279 273 304 310 312 315 312 310 316 317 314 301 303 309 307 310 309 298 296 314 327 315 318 340 309 260 262 251 245 261 238 192 201 219 224 207 199 190 189 209 200 208
97 111 129 157 188 211 282 274 231 247 276 280 286 293 297 303 304 302 297 303 310 311 313 309 308 321 327 317 321 322 319 324 307 253 250 247 241 230 206 208 218 222 215 204 197 203 208 206 211
168 182 162 181 237 207 243 272 256 261 289 286 293 301 304 302 305 305 301 307 310 309 310 300 302 310 311 314 315 306 312 326 317 292 267 258 247 239 225 211 217 225 222 212 206 210 217 212 212